Overview Statistics Trail Chart Weather Telemetry Raw packets
 

This is the latest recevied weather packets stored in our database for station/object SV1RVP-13. If no packets are shown the sender has not sent any weather packets the latest 10 day(s).

<< 10 11 12 13 14 15 16 >>
Time Temp. Humidity Pressure Rain* Wind** Luminosity Snow
1788512334 30.56° C 51% 1013.7 hPa 0 mm - - -
1788511718 30.56° C 51% 1013.8 hPa 0 mm - - -
1788511113 30.56° C 51% 1013.8 hPa 0 mm - - -
1788510513 30.56° C 52% 1013.7 hPa 0 mm - - -
1788509921 30.56° C 51% 1013.9 hPa 0 mm - - -
1788509324 30.56° C 51% 1013.7 hPa 0 mm - - -
1788508713 30° C 52% 1013.7 hPa 0 mm - - -
1788508132 30° C 51% 1013.7 hPa 0 mm - - -
1788507524 30° C 51% 1013.6 hPa 0 mm - - -
1788506913 30° C 50% 1013.4 hPa 0 mm - - -
1788506332 30° C 49% 1013.4 hPa 0 mm - - -
1788505719 30° C 50% 1013.5 hPa 0 mm - - -
1788505139 29.44° C 51% 1013.4 hPa 0 mm - - -
1788504518 28.89° C 53% 1013.3 hPa 0 mm - - -
1788503916 28.89° C 55% 1013.2 hPa 0 mm - - -
1788503332 28.89° C 55% 1013.1 hPa 0 mm - - -
1788502717 28.33° C 57% 1013.1 hPa 0 mm - - -
1788502112 27.78° C 58% 1013.1 hPa 0 mm - - -
1788501521 28.33° C 58% 1013.4 hPa 0 mm - - -
1788500909 27.78° C 58% 1013.4 hPa 0 mm - - -
1788500306 27.78° C 59% 1013.3 hPa 0 mm - - -
1788499727 27.22° C 59% 1013.2 hPa 0 mm - - -
1788499117 27.22° C 59% 1013.1 hPa 0 mm - - -
1788498516 26.67° C 60% 1012.9 hPa 0 mm - - -
1788497905 26.67° C 60% 1013 hPa 0 mm - - -

* Rain since midnight (hover to see other rain measurements)
** Current wind speed in m/s (hover to see current wind gust speed)